Regional Weather Roundup
Issued by NWS

Home | Current Version | Previous Version | Graphics & Text | Print | Product List | Glossary On
Versions: 1 2 3 4 5 6 7 8 9 10 11 12 13 14 15 16 17 18 19 20 21 22 23 24 25 26 27 28 29 30 31 32 33 34 35 36 37 38 39 40 41 42 43 44 45 46 47 48 49 50
000
ASUS45 KABQ 222301
RWRNM
NEW MEXICO REGIONAL WEATHER ROUNDUP
NATIONAL WEATHER SERVICE ALBUQUERQUE NM
500 PM MDT FRI SEP 22 2017

NOTE: "FAIR" MEANS FEW OR NO CLOUDS BELOW 12,000 FEET AGL WITH NO
       SIGNIFICANT WEATHER OR OBSTRUCTIONS TO VISION.

      THIS PRODUCT IS RELEASED AS TWO VERSIONS.  ONE VERSION NEAR
      THE TOP OF THE HOUR CONTAINING PRELIMINARY DATA FROM ALBUQUERQUE
      AND OTHER STATIONS.  A FINAL VERSION WITH ADDITIONAL DATA IS
      ISSUED ABOUT 10 MINUTES AFTER THE HOUR.

NMZ501-503-504-510>518-230000-
NORTHWEST PLATEAU/NORTHCENTRAL MOUNTAINS

CITY           SKY/WX    TMP DP  RH WIND       PRES   REMARKS
FARMINGTON     FAIR      79  26  14 S24G30    29.82S
LOS ALAMOS     FAIR      74  33  22 S20G30    29.99S
SANTA FE       PTSUNNY   77  37  23 S16G24    29.94F
TAOS           FAIR      76  32  20 SW28G37   29.99F
ANGEL FIRE     PTSUNNY   65  32  29 SW13      30.10S

$$
NMZ402-403-502-505>509-230000-
WESTCENTRAL MOUNTAINS/SOUTHWEST MOUNTAINS

CITY           SKY/WX    TMP DP  RH WIND       PRES   REMARKS
GALLUP         FAIR      75  28  17 SW23G37   29.91F
GRANTS         PTSUNNY   75  37  25 SW14G28   29.96R
SILVER CITY    FAIR      84  38  19 SW17G29   29.93F

$$
NMZ407-409-411-412-230000-
SOUTHERN DESERTS

CITY           SKY/WX    TMP DP  RH WIND       PRES   REMARKS
DEMING         PTSUNNY   90  39  16 SW17G26   29.83F
LAS CRUCES     FAIR      90  35  14 S14G24    29.87F
HOLLOMAN AFB   FAIR      92  39  16 S17G28    29.85F
ALAMOGORDO     FAIR      91  39  16 SW17G29   29.85F
T OR C         FAIR      90  34  13 SW29G38   29.84F

$$
NMZ519>523-230000-
CENTRAL VALLEYS/CENTRAL HIGHLANDS

CITY           SKY/WX    TMP DP  RH WIND       PRES   REMARKS
ALBUQUERQUE    PTSUNNY   83  35  18 SW21G36   29.86S
DOUBLE EAGLE   PTSUNNY   82  32  16 SW23G35   29.88F
CLINES CORNERS FAIR      76  35  22 SW24G39   30.02S
BELEN          PTSUNNY   84  32  15 S26G37    29.84S HAZE
SOCORRO        FAIR      89  32  13 S22G33    29.84S

$$
NMZ524>526-539-540-230000-
SOUTHCENTRAL MOUNTAINS

CITY           SKY/WX    TMP DP  RH WIND       PRES   REMARKS
RUIDOSO        FAIR      79  36  21 SW18G28   30.06S

$$
NMZ527>531-230000-
NORTHEAST HIGHLANDS/NORTHEAST PLAINS

CITY           SKY/WX    TMP DP  RH WIND       PRES   REMARKS
LAS VEGAS      FAIR      74  35  24 S30G39    29.98F
RATON          FAIR      77  32  19 S29G40    29.92F
CLAYTON        FAIR      87  43  21 S23       29.87S

$$
NMZ532>537-230000-
EASTCENTRAL PLAINS

CITY           SKY/WX    TMP DP  RH WIND       PRES   REMARKS
SANTA ROSA     FAIR      90  35  14 S16G23    29.84S
TUCUMCARI      FAIR      94  39  14 S18G38    29.80F
CANNON AFB     FAIR      87  56  35 S16G25    29.87F
CLOVIS AIRPORT PTSUNNY   83  62  49 S18G24    29.88F

$$
NMZ028-029-538-230000-
SOUTHEAST PLAINS

CITY           SKY/WX    TMP DP  RH WIND       PRES   REMARKS
ROSWELL        FAIR      95  50  21 SE18G24   29.80F
ARTESIA        FAIR      93  54  26 SE14G23   29.80F
CARLSBAD       PTSUNNY   92  57  30 S21G29    29.79F
HOBBS          MOSUNNY   90  57  33 S17G24    29.85F


$$




USA.gov is the U.S. government's official web portal to all federal, state and local government web resources and services.